Zurück zum Katalog

ARIANE 2 DEB

LostGTO
NORAD 33557·DEBRIS·🇫🇷 France

Gestartet Jan 27, 1989 von Guiana Space Centre

Loading…

TLE

VeraltetSource: Space-Track

Epoche: Jul 1, 2025, 21:59 UTC

1 33557U 89006AZ  25182.91605887 -.00000103  00000-0  00000+0 0  9992
2 33557   9.9091  16.0291 6956659 196.6665  69.2421  2.23118583170990

Verfolge ARIANE 2 DEB in Echtzeit mit AllMySat

Download on the App Store